Medford, WI

2:30 AM CDT on September 15, 2019 (GMT -0500)
Taylor County

Weather History for KMDZ - August, 2019

Change the Weather History Date:

Sunday, August 18, 2019

  Actual Average Record
Temperature  
Mean Temperature 62 °F -  
Max Temperature 71 °F 76 °F 95 °F (1988)
Min Temperature 54 °F 54 °F 37 °F (1977)
Degree Days  
Heating Degree Days 2    
Growing Degree Days 12 (Base 50)    
Moisture  
Dew Point 59 °F    
Average Humidity 85    
Maximum Humidity 98    
Minimum Humidity 62    
Precipitation  
Precipitation 0.20 in - - ()
Sea Level Pressure  
Sea Level Pressure 29.77 in    
Wind  
Wind Speed 8 mph (WSW)    
Max Wind Speed 17 mph    
Max Gust Speed 29 mph    
Visibility 9 miles    
Events Rain    
Averages and records for this station are not official NWS values.
T = Trace of Precipitation, MM = Missing Value Source: NWS Daily Summary

Daily Weather History Graph

Daily Weather History Graph

Search for Another Location

Airport or City:

Astronomy

Aug. 18, 2019 Rise Set
Actual Time 6:06 AM CDT 8:03 PM CDT
Civil Twilight 5:34 AM CDT 8:34 PM CDT
Nautical Twilight 4:55 AM CDT 9:13 PM CDT
Astronomical Twilight 4:12 AM CDT 9:55 PM CDT
Moon 9:50 PM CDT (8/18) 8:57 AM CDT (8/18)
Length of Visible Light 15h 00m
Length of Day
13h 57m
Waning Gibbous, 91% of the Moon is Illuminated
Aug 18
Waning Gibbous
Aug 23
Last Quarter
Aug 30
New
Sep 5
First Quarter
Sep 13
Full

Hourly Weather History & Observations

Time (CDT) Temp. Dew Point Humidity Pressure Visibility Wind Dir Wind Speed Gust Speed Precip Events Conditions
12:35 AM 62.2 °F 59.5 °F 91% 29.81 in 10.0 mi SE 3.5 mph - N/A   Scattered Clouds
12:55 AM 61.7 °F 59.5 °F 93% 29.81 in 10.0 mi SE 4.6 mph - N/A   Scattered Clouds
1:15 AM 61.5 °F 59.5 °F 93% 29.82 in 10.0 mi South 5.8 mph - N/A   Mostly Cloudy
1:35 AM 61.7 °F 59.9 °F 94% 29.79 in 10.0 mi SSE 6.9 mph - N/A   Mostly Cloudy
1:55 AM 62.1 °F 60.3 °F 94% 29.79 in 10.0 mi SSE 8.1 mph - N/A   Mostly Cloudy
2:15 AM 62.1 °F 60.4 °F 94% 29.79 in 10.0 mi SSE 6.9 mph - N/A   Overcast
2:35 AM 62.6 °F 60.8 °F 94% 29.78 in 10.0 mi SSE 5.8 mph - N/A   Overcast
2:55 AM 63.1 °F 61.2 °F 93% 29.76 in 10.0 mi SSE 6.9 mph - N/A   Scattered Clouds
3:15 AM 63.9 °F 61.9 °F 93% 29.73 in 10.0 mi SE 9.2 mph - N/A   Mostly Cloudy
3:35 AM 64.4 °F 62.2 °F 93% 29.74 in 10.0 mi SSE 8.1 mph - N/A   Mostly Cloudy
3:55 AM 64.0 °F 62.6 °F 95% 29.74 in 10.0 mi SSE 4.6 mph - N/A   Mostly Cloudy
4:15 AM 63.5 °F 62.6 °F 97% 29.75 in 7.0 mi South 6.9 mph - N/A   Overcast
4:35 AM 63.7 °F 62.6 °F 96% 29.73 in 7.0 mi SSE 4.6 mph - N/A   Mostly Cloudy
4:55 AM 63.5 °F 62.6 °F 97% 29.70 in 7.0 mi SE 5.8 mph - N/A   Overcast
5:15 AM 63.1 °F 62.6 °F 98% 29.67 in 5.0 mi SE 5.8 mph - N/A   Mostly Cloudy
5:35 AM 63.5 °F 62.6 °F 97% 29.62 in 5.0 mi ESE 8.1 mph - N/A   Scattered Clouds
5:55 AM 63.5 °F 62.8 °F 97% 29.59 in 5.0 mi ESE 9.2 mph - N/A   Mostly Cloudy
6:15 AM 64.0 °F 63.5 °F 98% 29.60 in 7.0 mi ESE 9.2 mph - N/A   Overcast
6:35 AM 64.6 °F 63.7 °F 97% 29.63 in 7.0 mi SE 5.8 mph - N/A   Overcast
6:55 AM 65.1 °F 63.9 °F 96% 29.65 in 7.0 mi SSE 6.9 mph - N/A   Overcast
7:15 AM 65.1 °F 64.2 °F 97% 29.66 in 7.0 mi SSE 4.6 mph - N/A   Overcast
7:35 AM 65.3 °F 64.4 °F 97% 29.64 in 4.0 mi SE 4.6 mph - N/A   Drizzle
7:55 AM 65.3 °F 64.4 °F 97% 29.62 in 1.5 mi SSW 6.9 mph - 0.09 in Rain Heavy Rain
8:15 AM 64.6 °F 62.8 °F 94% 29.62 in 5.0 mi SW 12.7 mph 19.6 mph 0.06 in Rain Light Rain
8:35 AM 64.6 °F 62.6 °F 93% 29.63 in 10.0 mi SSW 6.9 mph - 0.06 in   Overcast
8:55 AM 62.8 °F 61.0 °F 94% 29.65 in 3.0 mi SSW 17.3 mph 23.0 mph 0.07 in Rain Rain
9:15 AM 61.7 °F 60.8 °F 97% 29.66 in 3.0 mi SW 12.7 mph 23.0 mph 0.02 in   Heavy Drizzle
9:35 AM 62.1 °F 61.0 °F 96% 29.67 in 5.0 mi WSW 10.4 mph 20.7 mph 0.03 in Rain Heavy Rain
9:55 AM 62.6 °F 61.3 °F 96% 29.68 in 10.0 mi WSW 11.5 mph 27.6 mph 0.03 in   Overcast
10:15 AM 63.7 °F 62.1 °F 94% 29.69 in 10.0 mi West 11.5 mph 21.9 mph N/A   Overcast
10:35 AM 64.0 °F 62.1 °F 93% 29.70 in 10.0 mi WSW 11.5 mph 23.0 mph N/A   Overcast
10:55 AM 63.5 °F 62.1 °F 95% 29.71 in 5.0 mi West 11.5 mph 24.2 mph N/A Rain Light Rain
11:15 AM 63.1 °F 62.2 °F 97% 29.71 in 1.8 mi West 16.1 mph 23.0 mph 0.01 in   Heavy Drizzle
11:35 AM 63.9 °F 62.1 °F 94% 29.71 in 10.0 mi West 16.1 mph 23.0 mph 0.01 in   Overcast
11:55 AM 64.2 °F 61.2 °F 90% 29.71 in 10.0 mi West 15.0 mph 28.8 mph 0.01 in   Overcast
12:15 PM 65.1 °F 62.1 °F 90% 29.72 in 10.0 mi West 11.5 mph - N/A   Overcast
12:35 PM 64.9 °F 60.8 °F 86% 29.74 in 10.0 mi West 15.0 mph 25.3 mph N/A   Overcast
12:55 PM 67.1 °F 61.5 °F 82% 29.75 in 10.0 mi West 16.1 mph 21.9 mph N/A   Overcast
1:15 PM 66.4 °F 61.0 °F 83% 29.76 in 10.0 mi West 11.5 mph 18.4 mph N/A   Overcast
1:35 PM 66.6 °F 60.6 °F 81% 29.78 in 10.0 mi West 12.7 mph 21.9 mph N/A   Overcast
1:55 PM 68.0 °F 61.9 °F 81% 29.78 in 10.0 mi West 12.7 mph 17.3 mph N/A   Overcast
2:15 PM 68.2 °F 60.4 °F 76% 29.79 in 10.0 mi West 15.0 mph 20.7 mph N/A   Overcast
2:35 PM 68.5 °F 61.5 °F 78% 29.79 in 10.0 mi West 8.1 mph - N/A   Overcast
2:55 PM 69.4 °F 62.2 °F 78% 29.80 in 10.0 mi West 6.9 mph - N/A   Overcast
3:15 PM 69.6 °F 61.3 °F 75% 29.80 in 10.0 mi WNW 8.1 mph 17.3 mph N/A   Overcast
3:35 PM 71.2 °F 60.3 °F 68% 29.80 in 10.0 mi West 13.8 mph 19.6 mph N/A   Scattered Clouds
3:55 PM 71.2 °F 58.3 °F 64% 29.81 in 10.0 mi West 13.8 mph 23.0 mph N/A   Clear
4:15 PM 70.7 °F 59.0 °F 66% 29.81 in 10.0 mi West 12.7 mph 16.1 mph N/A   Clear
4:35 PM 69.1 °F 59.0 °F 70% 29.81 in 10.0 mi West 11.5 mph 19.6 mph N/A   Scattered Clouds
4:55 PM 70.9 °F 58.3 °F 64% 29.82 in 10.0 mi West 12.7 mph 23.0 mph N/A   Clear
5:15 PM 71.2 °F 57.7 °F 62% 29.82 in 10.0 mi West 12.7 mph 20.7 mph N/A   Mostly Cloudy
5:35 PM 69.6 °F 57.6 °F 65% 29.83 in 10.0 mi WNW 10.4 mph - N/A   Mostly Cloudy
5:55 PM 69.3 °F 57.4 °F 66% 29.83 in 10.0 mi WNW 11.5 mph 17.3 mph N/A   Scattered Clouds
6:15 PM 69.1 °F 56.7 °F 65% 29.84 in 10.0 mi West 9.2 mph 16.1 mph N/A   Scattered Clouds
6:35 PM 68.0 °F 56.7 °F 67% 29.84 in 10.0 mi West 9.2 mph - N/A   Mostly Cloudy
6:55 PM 66.6 °F 55.6 °F 68% 29.84 in 10.0 mi West 8.1 mph - N/A   Scattered Clouds
7:15 PM 65.3 °F 56.3 °F 73% 29.85 in 10.0 mi West 6.9 mph - N/A   Clear
7:35 PM 64.9 °F 53.6 °F 67% 29.86 in 10.0 mi West 6.9 mph - N/A   Clear
7:55 PM 63.0 °F 53.1 °F 70% 29.86 in 10.0 mi West 6.9 mph - N/A   Clear
8:15 PM 61.5 °F 52.3 °F 72% 29.87 in 10.0 mi West 8.1 mph - N/A   Clear
8:35 PM 60.3 °F 52.0 °F 74% 29.87 in 10.0 mi WNW 6.9 mph - N/A   Clear
8:55 PM 59.4 °F 51.8 °F 76% 29.88 in 10.0 mi WNW 5.8 mph - N/A   Clear
9:15 PM 58.1 °F 51.8 °F 80% 29.88 in 10.0 mi WNW 4.6 mph - N/A   Clear
9:35 PM 56.8 °F 51.6 °F 83% 29.89 in 10.0 mi WNW 5.8 mph - N/A   Clear
9:55 PM 56.5 °F 51.3 °F 83% 29.89 in 10.0 mi WNW 3.5 mph - N/A   Clear
10:15 PM 57.4 °F 50.9 °F 79% 29.89 in 10.0 mi West 4.6 mph - N/A   Clear
10:35 PM 56.1 °F 50.9 °F 83% 29.90 in 10.0 mi West 4.6 mph - N/A   Clear
10:55 PM 55.8 °F 50.5 °F 83% 29.90 in 10.0 mi West 3.5 mph - N/A   Clear
11:15 PM 55.6 °F 50.4 °F 83% 29.91 in 10.0 mi West 3.5 mph - N/A   Clear
11:35 PM 54.7 °F 50.0 °F 84% 29.92 in 10.0 mi West 4.6 mph - N/A   Clear
11:55 PM 54.3 °F 50.0 °F 85% 29.93 in 10.0 mi SW 3.5 mph - N/A   Clear